GW0309 Weather Reports


time (UTC)temp
F
wind
direction
speed
knots
gust
knots
rain 1hr
in
rain 24hr
in
rain mn
in
humidity
%
barometer
mb
20260906165250 0 153 0.9 1.7 0.00 0.00 0.00 1063.7
20260906164749 0 289 2.6 2.6 0.00 0.00 0.00 1063.8
20260906164244 0 143 0.9 2.6 0.00 0.00 0.00 1063.7
20260906163740 0 170 2.6 2.6 0.00 0.00 0.00 1063.6
20260906163236 0 136 0.9 2.6 0.00 0.00 0.00 1063.7
20260906162733 0 49 0.9 2.6 0.00 0.00 0.00 1063.5
20260906162227 0 163 1.7 1.7 0.00 0.00 0.00 1063.9
20260906161722 0 71 1.7 2.6 0.00 0.00 0.00 1063.8
20260906161221 0 146 0.0 1.7 0.00 0.00 0.00 1063.9
20260906160720 0 127 0.0 0.9 0.00 0.00 0.00 1063.9
20260906160220 0 95 0.9 1.7 0.00 0.00 0.00 1063.9
20260906155717 0 150 0.0 1.7 0.00 0.00 0.00 1063.7
20260906155212 0 100 2.6 2.6 0.00 0.00 0.00 1063.8
20260906154708 0 199 1.7 1.7 0.00 0.00 0.00 1064.0
20260906154209 0 152 0.9 1.7 0.00 0.00 0.00 1064.0
20260906153706 0 138 0.9 1.7 0.00 0.00 0.00 1063.7
20260906153201 0 136 0.0 4.3 0.00 0.00 0.00 1063.7
20260906152657 0 143 1.7 5.2 0.00 0.00 0.00 1063.5
20260906152151 0 136 1.7 1.7 0.00 0.00 0.00 1063.6
20260906151645 0 164 3.5 5.2 0.00 0.00 0.00 1063.6
20260906151142 0 175 4.3 4.3 0.00 0.00 0.00 1063.8
20260906150636 0 137 0.9 0.9 0.00 0.00 0.00 1063.9
20260906150131 0 52 1.7 2.6 0.00 0.00 0.00 1063.8
20260906145625 0 127 0.0 1.7 0.00 0.00 0.00 1063.5
20260906145119 0 123 0.9 1.7 0.00 0.00 0.00 1063.5
20260906144614 0 165 2.6 4.3 0.00 0.00 0.00 1063.7
20260906144109 0 178 2.6 4.3 0.00 0.00 0.00 1063.5
20260906143604 0 165 3.5 5.2 0.00 0.00 0.00 1063.6
20260906143101 0 117 0.0 4.3 0.00 0.00 0.00 1063.7
20260906142600 0 139 1.7 2.6 0.00 0.00 0.00 1063.6
20260906142055 0 151 1.7 2.6 0.00 0.00 0.00 1063.6
20260906141554 0 107 0.9 1.7 0.00 0.00 0.00 1063.6
20260906141050 0 126 0.9 1.7 0.00 0.00 0.00 1063.7
20260906140548 0 127 0.9 1.7 0.00 0.00 0.00 1063.8
20260906140043 0 116 0.9 2.6 0.00 0.00 0.00 1063.6
20260906135540 0 88 0.9 1.7 0.00 0.00 0.00 1063.7
20260906135036 0 93 0.9 0.9 0.00 0.00 0.00 1063.8
20260906134531 0 98 0.0 0.9 0.00 0.00 0.00 1063.7
20260906134026 0 139 0.0 1.7 0.00 0.00 0.00 1063.7
20260906133522 0 130 0.9 2.6 0.00 0.00 0.00 1063.6
20260906133017 0 111 0.9 1.7 0.00 0.00 0.00 1063.6
20260906132512 0 134 0.9 2.6 0.00 0.00 0.00 1063.4
20260906132008 0 127 0.0 1.7 0.00 0.00 0.00 1063.6
20260906131503 0 150 0.9 1.7 0.00 0.00 0.00 1063.1
20260906130958 0 129 0.9 1.7 0.00 0.00 0.00 1063.1
20260906130458 0 144 0.0 0.9 0.00 0.00 0.00 1063.3
20260906125952 0 127 0.0 1.7 0.00 0.00 0.00 1063.3
20260906125450 0 151 1.7 1.7 0.00 0.00 0.00 1063.3
20260906124949 0 156 0.0 0.9 0.00 0.00 0.00 1063.0
20260906124445 0 128 0.9 0.9 0.00 0.00 0.00 1063.0
20260906123939 0 140 0.0 0.9 0.00 0.00 0.00 1062.9
20260906123439 0 136 0.0 0.9 0.00 0.00 0.00 1062.8
20260906122933 0 136 0.0 0.9 0.00 0.00 0.00 1063.0
20260906122428 0 133 0.0 0.9 0.00 0.00 0.00 1062.8
20260906121925 0 139 0.0 0.0 0.00 0.00 0.00 1062.5
20260906121421 0 139 0.0 0.0 0.00 0.00 0.00 1062.8
20260906120917 0 124 0.0 0.0 0.00 0.00 0.00 1062.6
20260906120412 0 140 0.0 0.0 0.00 0.00 0.00 1062.7
20260906115908 0 145 0.0 0.0 0.00 0.00 0.00 1062.6
20260906115404 0 137 0.0 0.0 0.00 0.00 0.00 1062.7
20260906114903 0 139 0.0 0.0 0.00 0.00 0.00 1062.3
20260906114358 0 141 0.0 0.0 0.00 0.00 0.00 1062.5
20260906113854 0 141 0.0 0.0 0.00 0.00 0.00 1062.5
20260906113352 0 135 0.0 0.9 0.00 0.00 0.00 1062.6
20260906112848 0 139 0.0 0.0 0.00 0.00 0.00 1062.3
20260906112344 0 138 0.0 0.0 0.00 0.00 0.00 1062.4
20260906111843 0 136 0.0 0.9 0.00 0.00 0.00 1062.1
20260906111337 0 125 0.0 0.9 0.00 0.00 0.00 1062.3
20260906110832 0 136 0.9 0.9 0.00 0.00 0.00 1062.0
20260906110328 0 135 0.0 0.9 0.00 0.00 0.00 1062.3
20260906105827 0 133 0.0 0.9 0.00 0.00 0.00 1062.3
20260906105323 0 138 0.0 0.0 0.00 0.00 0.00 1062.2
20260906104819 0 135 0.0 0.0 0.00 0.00 0.00 1062.2
20260906104318 0 140 0.0 0.0 0.00 0.00 0.00 1062.4
20260906103816 0 138 0.0 0.0 0.00 0.00 0.00 1062.4
20260906103315 0 140 0.0 0.0 0.00 0.00 0.00 1062.4
20260906102811 0 140 0.0 0.0 0.00 0.00 0.00 1062.2
20260906102310 0 131 0.0 0.9 0.00 0.00 0.00 1061.9
20260906101805 0 138 0.0 0.9 0.00 0.00 0.00 1062.0
20260906101300 0 141 0.0 0.0 0.00 0.00 0.00 1062.0
20260906100756 0 142 0.0 0.0 0.00 0.00 0.00 1062.1
20260906100255 0 146 0.0 0.0 0.00 0.00 0.00 1062.0
20260906095750 0 139 0.0 0.0 0.00 0.00 0.00 1062.1
20260906095245 0 140 0.0 0.0 0.00 0.00 0.00 1061.8
20260906094744 0 149 0.0 0.9 0.00 0.00 0.00 1061.8
20260906094240 0 140 0.0 0.0 0.00 0.00 0.00 1061.8
20260906093736 0 140 0.0 0.0 0.00 0.00 0.00 1061.7
20260906093231 0 138 0.0 0.0 0.00 0.00 0.00 1061.8
20260906092727 0 133 0.0 0.0 0.00 0.00 0.00 1061.6
20260906092226 0 143 0.0 0.0 0.00 0.00 0.00 1061.6
20260906091722 0 141 0.0 0.0 0.00 0.00 0.00 1061.6
20260906091218 0 138 0.0 0.0 0.00 0.00 0.00 1061.6
20260906090715 0 135 0.0 0.0 0.00 0.00 0.00 1061.7
20260906090213 0 139 0.0 0.0 0.00 0.00 0.00 1061.6
20260906085713 0 140 0.0 0.0 0.00 0.00 0.00 1061.5
20260906085212 0 139 0.0 0.0 0.00 0.00 0.00 1061.4
20260906084706 0 133 0.0 0.0 0.00 0.00 0.00 1061.4
20260906084201 0 141 0.0 0.0 0.00 0.00 0.00 1061.4
20260906083656 0 146 0.0 0.0 0.00 0.00 0.00 1061.6
20260906083151 0 140 0.0 0.0 0.00 0.00 0.00 1061.5
20260906082646 0 140 0.0 0.9 0.00 0.00 0.00 1061.6
20260906082141 0 140 0.0 0.0 0.00 0.00 0.00 1061.3
20260906081637 0 140 0.0 0.0 0.00 0.00 0.00 1061.4
20260906081132 0 145 0.0 0.0 0.00 0.00 0.00 1061.3
20260906080628 0 151 0.9 0.9 0.00 0.00 0.00 1061.4
20260906080125 0 146 0.0 0.0 0.00 0.00 0.00 1061.5
20260906075624 0 138 0.0 0.0 0.00 0.00 0.00 1061.6
20260906075119 0 138 0.0 0.0 0.00 0.00 0.00 1061.5
20260906074614 0 141 0.0 0.0 0.00 0.00 0.00 1061.6
20260906074107 0 141 0.0 0.0 0.00 0.00 0.00 1061.6
20260906073602 0 140 0.0 0.0 0.00 0.00 0.00 1061.6
20260906073058 0 141 0.0 0.0 0.00 0.00 0.00 1061.4
20260906072558 0 138 0.0 0.0 0.00 0.00 0.00 1061.6
20260906072054 0 139 0.0 0.0 0.00 0.00 0.00 1061.9
20260906071551 0 135 0.0 0.0 0.00 0.00 0.00 1061.7
20260906071045 0 138 0.0 0.0 0.00 0.00 0.00 1061.9
20260906070542 0 142 0.0 0.0 0.00 0.00 0.00 1061.7
20260906070037 0 145 0.0 0.0 0.00 0.00 0.00 1061.7
20260906065537 0 145 0.0 0.9 0.00 0.00 0.00 1061.9
20260906065032 0 146 0.0 0.9 0.00 0.00 0.00 1061.9
20260906064528 0 140 0.0 0.0 0.00 0.00 0.00 1062.0
20260906064023 0 138 0.0 0.0 0.00 0.00 0.00 1061.8
20260906063518 0 138 0.0 0.0 0.00 0.00 0.00 1062.1
20260906063014 0 138 0.0 0.0 0.00 0.00 0.00 1062.2
20260906062509 0 139 0.0 0.0 0.00 0.00 0.00 1062.1
20260906062004 0 138 0.0 0.0 0.00 0.00 0.00 1062.3
20260906061500 0 141 0.0 0.0 0.00 0.00 0.00 1062.3
20260906060954 0 138 0.0 0.0 0.00 0.00 0.00 1062.2
20260906060450 0 147 0.0 0.0 0.00 0.00 0.00 1062.1
20260906055947 0 143 0.0 0.0 0.00 0.00 0.00 1062.1
20260906055442 0 140 0.0 0.0 0.00 0.00 0.00 1062.4
20260906054937 0 139 0.0 0.0 0.00 0.00 0.00 1062.3
20260906054432 0 142 0.0 0.0 0.00 0.00 0.00 1062.1
20260906053928 0 138 0.0 0.0 0.00 0.00 0.00 1062.1
20260906053424 0 140 0.0 0.9 0.00 0.00 0.00 1062.1
20260906052920 0 148 0.9 0.9 0.00 0.00 0.00 1061.9
20260906052416 0 138 0.0 0.0 0.00 0.00 0.00 1061.9
20260906051912 0 138 0.0 0.0 0.00 0.00 0.00 1062.0
20260906051413 0 137 0.0 0.0 0.00 0.00 0.00 1062.0
20260906050908 0 136 0.0 0.0 0.00 0.00 0.00 1062.0
20260906050408 0 127 0.0 0.9 0.00 0.00 0.00 1062.1
20260906045907 0 141 0.0 0.9 0.00 0.00 0.00 1062.0
20260906045406 0 138 0.0 0.0 0.00 0.00 0.00 1062.3
20260906044903 0 141 0.0 0.0 0.00 0.00 0.00 1062.1
20260906044402 0 155 0.9 1.7 0.00 0.00 0.00 1062.1
20260906043858 0 159 0.9 1.7 0.00 0.00 0.00 1062.1
20260906043354 0 143 0.0 0.0 0.00 0.00 0.00 1062.3
20260906042849 0 138 0.0 0.0 0.00 0.00 0.00 1062.4
20260906042348 0 138 0.0 0.0 0.00 0.00 0.00 1062.2
20260906041843 0 140 0.0 0.0 0.00 0.00 0.00 1062.3
20260906041339 0 140 0.0 0.0 0.00 0.00 0.00 1062.1
20260906040834 0 140 0.0 0.0 0.00 0.00 0.00 1062.1
20260906040329 0 137 0.0 0.0 0.00 0.00 0.00 1062.2
20260906035824 0 136 0.0 0.0 0.00 0.00 0.00 1062.2
20260906035320 0 141 0.0 0.9 0.00 0.00 0.00 1062.1
20260906034815 0 141 0.0 0.9 0.00 0.00 0.00 1062.2
20260906034314 0 140 0.0 0.9 0.00 0.00 0.00 1062.1
20260906033810 0 142 0.0 0.0 0.00 0.00 0.00 1061.9
20260906033309 0 143 0.0 0.0 0.00 0.00 0.00 1061.8
20260906032806 0 139 0.0 0.0 0.00 0.00 0.00 1062.1
20260906032305 0 134 0.0 0.0 0.00 0.00 0.00 1061.9
20260906031756 0 141 0.0 0.0 0.00 0.00 0.00 1061.9
20260906031253 0 139 0.0 0.0 0.00 0.00 0.00 1061.9
20260906030752 0 138 0.0 0.0 0.00 0.00 0.00 1061.8
20260906030247 0 134 0.0 0.0 0.00 0.00 0.00 1061.7
20260906025747 0 138 0.0 0.0 0.00 0.00 0.00 1061.8
20260906025241 0 136 0.0 0.0 0.00 0.00 0.00 1061.7
20260906024740 0 136 0.0 0.0 0.00 0.00 0.00 1061.7
20260906024239 0 128 0.0 0.9 0.00 0.00 0.00 1061.4
20260906023735 0 138 0.0 0.0 0.00 0.00 0.00 1061.7
20260906023230 0 136 0.0 0.0 0.00 0.00 0.00 1061.6
20260906022726 0 136 0.0 0.0 0.00 0.00 0.00 1061.6
20260906022221 0 136 0.0 0.0 0.00 0.00 0.00 1061.5
20260906021717 0 136 0.0 0.0 0.00 0.00 0.00 1061.3
20260906021215 0 140 0.0 0.0 0.00 0.00 0.00 1061.3
20260906020711 0 138 0.0 0.0 0.00 0.00 0.00 1061.5
20260906020205 0 136 0.0 0.0 0.00 0.00 0.00 1061.3
20260906015700 0 133 0.0 0.0 0.00 0.00 0.00 1060.9
20260906015159 0 140 0.0 0.0 0.00 0.00 0.00 1060.9
20260906014658 0 139 0.0 0.0 0.00 0.00 0.00 1060.8
20260906014154 0 138 0.0 0.0 0.00 0.00 0.00 1061.1
20260906013651 0 138 0.0 0.0 0.00 0.00 0.00 1060.9
20260906013146 0 131 0.0 0.9 0.00 0.00 0.00 1061.2
20260906012645 0 129 0.0 0.0 0.00 0.00 0.00 1061.1
20260906012140 0 142 0.0 0.0 0.00 0.00 0.00 1060.8
20260906011635 0 141 0.0 0.0 0.00 0.00 0.00 1061.0
20260906011131 0 148 0.0 0.0 0.00 0.00 0.00 1060.7
20260906010625 0 141 0.0 0.0 0.00 0.00 0.00 1060.4
20260906010116 0 147 0.0 0.9 0.00 0.00 0.00 1060.8
20260906005615 0 156 0.0 0.9 0.00 0.00 0.00 1060.7
20260906005114 0 155 0.0 0.9 0.00 0.00 0.00 1060.9
20260906004614 0 147 0.0 0.9 0.00 0.00 0.00 1060.7
20260906004108 0 143 0.9 1.7 0.00 0.00 0.00 1060.9
20260906003604 0 158 0.0 1.7 0.00 0.00 0.00 1061.0
20260906003101 0 157 1.7 4.3 0.00 0.00 0.00 1061.2
20260906002600 0 190 3.5 5.2 0.00 0.00 0.00 1061.0
20260906002055 0 204 1.7 2.6 0.00 0.00 0.00 1061.1
20260906001545 0 153 0.0 0.9 0.00 0.00 0.00 1061.1
20260906001044 0 159 0.9 2.6 0.00 0.00 0.00 1061.2
20260906000541 0 149 0.9 1.7 0.00 0.00 0.00 1060.9
20260906000035 0 137 0.9 1.7 0.00 0.00 0.00 1061.0
20260905235529 0 138 0.0 1.7 0.00 0.00 0.00 1060.9
20260905235024 0 176 0.9 7.8 0.00 0.00 0.00 1060.7
20260905234520 0 127 0.9 2.6 0.00 0.00 0.00 1060.9
20260905234014 0 174 6.1 11.3 0.00 0.00 0.00 1060.9
20260905233509 0 143 1.7 8.7 0.00 0.00 0.00 1060.7
20260905233009 0 119 0.9 1.7 0.00 0.00 0.00 1060.3
20260905232504 0 107 0.9 1.7 0.00 0.00 0.00 1060.4
20260905232000 0 99 1.7 2.6 0.00 0.00 0.00 1060.1
20260905231450 0 78 0.0 0.9 0.00 0.00 0.00 1059.9
20260905230947 0 355 0.9 1.7 0.00 0.00 0.00 1060.3
20260905230444 0 127 0.0 0.9 0.00 0.00 0.00 1060.0
20260905225937 0 141 0.0 0.9 0.00 0.00 0.00 1059.9
20260905225432 0 101 0.9 0.9 0.00 0.00 0.00 1059.8
20260905224927 0 97 0.9 1.7 0.00 0.00 0.00 1059.9
20260905224423 0 121 0.9 0.9 0.00 0.00 0.00 1060.0
20260905223916 0 114 0.0 1.7 0.00 0.00 0.00 1060.2
20260905223414 0 114 0.9 0.9 0.00 0.00 0.00 1060.2
20260905222909 0 136 0.0 1.7 0.00 0.00 0.00 1060.1
20260905222408 0 118 0.9 0.9 0.00 0.00 0.00 1060.1
20260905221904 0 121 0.9 1.7 0.00 0.00 0.00 1060.0
20260905221400 0 101 0.9 1.7 0.00 0.00 0.00 1060.1
20260905220855 0 137 0.0 1.7 0.00 0.00 0.00 1060.0
20260905220352 0 102 0.9 1.7 0.00 0.00 0.00 1060.1
20260905215851 0 81 0.9 2.6 0.00 0.00 0.00 1060.2
20260905215347 0 98 1.7 1.7 0.00 0.00 0.00 1060.3
20260905214843 0 126 0.9 2.6 0.00 0.00 0.00 1060.1
20260905214338 0 121 0.9 2.6 0.00 0.00 0.00 1060.0
20260905213833 0 71 1.7 1.7 0.00 0.00 0.00 1060.1
20260905213329 0 115 0.9 1.7 0.00 0.00 0.00 1059.9
20260905212824 0 92 0.9 4.3 0.00 0.00 0.00 1060.3
20260905212318 0 148 2.6 5.2 0.00 0.00 0.00 1060.2
20260905211813 0 320 2.6 4.3 0.00 0.00 0.00 1060.2
20260905211308 0 306 4.3 5.2 0.00 0.00 0.00 1060.3
20260905210805 0 116 2.6 4.3 0.00 0.00 0.00 1060.4
20260905210304 0 129 1.7 2.6 0.00 0.00 0.00 1060.6
20260905205803 0 151 0.9 2.6 0.00 0.00 0.00 1060.7
20260905205258 0 106 0.9 2.6 0.00 0.00 0.00 1060.6
20260905204757 0 218 1.7 1.7 0.00 0.00 0.00 1060.8
20260905204254 0 171 0.9 1.7 0.00 0.00 0.00 1060.8
20260905203752 0 192 1.7 2.6 0.00 0.00 0.00 1060.9
20260905203248 0 207 1.7 1.7 0.00 0.00 0.00 1061.0
20260905202744 0 338 2.6 4.3 0.00 0.00 0.00 1061.1
20260905202238 0 216 0.9 5.2 0.00 0.00 0.00 1061.1
20260905201734 0 96 0.9 1.7 0.00 0.00 0.00 1061.3
20260905201229 0 345 1.7 2.6 0.00 0.00 0.00 1061.3
20260905200724 0 78 1.7 2.6 0.00 0.00 0.00 1061.4
20260905200220 0 318 2.6 4.3 0.00 0.00 0.00 1061.3
20260905195717 0 68 0.9 4.3 0.00 0.00 0.00 1061.7
20260905195212 0 89 1.7 2.6 0.00 0.00 0.00 1061.3
20260905194708 0 84 2.6 2.6 0.00 0.00 0.00 1061.4
20260905194208 0 149 1.7 4.3 0.00 0.00 0.00 1061.5
20260905193702 0 61 0.9 1.7 0.00 0.00 0.00 1061.4
20260905193157 0 156 0.0 2.6 0.00 0.00 0.00 1061.6
20260905192653 0 15 2.6 4.3 0.00 0.00 0.00 1061.6
20260905192149 0 115 0.9 0.9 0.00 0.00 0.00 1061.8
20260905191648 0 141 0.9 1.7 0.00 0.00 0.00 1061.8
20260905191146 0 122 0.9 1.7 0.00 0.00 0.00 1061.9
20260905190644 0 157 0.9 1.7 0.00 0.00 0.00 1062.1
20260905190138 0 171 1.7 4.3 0.00 0.00 0.00 1062.1
20260905185638 0 30 0.9 4.3 0.00 0.00 0.00 1062.2
20260905185138 0 14 2.6 4.3 0.00 0.00 0.00 1062.2
20260905184632 0 269 1.7 1.7 0.00 0.00 0.00 1062.2
20260905184131 0 241 2.6 4.3 0.00 0.00 0.00 1062.4
20260905183631 0 97 0.9 2.6 0.00 0.00 0.00 1062.3
20260905183126 0 114 0.9 1.7 0.00 0.00 0.00 1062.5
20260905182625 0 265 1.7 2.6 0.00 0.00 0.00 1062.5
20260905182125 0 193 2.6 4.3 0.00 0.00 0.00 1062.3
20260905181620 0 144 1.7 4.3 0.00 0.00 0.00 1062.6
20260905181119 0 286 2.6 4.3 0.00 0.00 0.00 1062.6
20260905180614 0 34 2.6 4.3 0.00 0.00 0.00 1062.6
20260905180110 0 154 0.9 1.7 0.00 0.00 0.00 1062.7
20260905175609 0 83 0.9 2.6 0.00 0.00 0.00 1062.9
20260905175104 0 128 0.9 2.6 0.00 0.00 0.00 1062.9
20260905174600 0 328 4.3 5.2 0.00 0.00 0.00 1062.9
20260905174055 0 199 0.9 1.7 0.00 0.00 0.00 1063.1
20260905173551 0 152 0.0 1.7 0.00 0.00 0.00 1063.1
20260905173046 0 155 0.9 0.9 0.00 0.00 0.00 1063.0
20260905172545 0 127 0.9 1.7 0.00 0.00 0.00 1063.3
20260905172040 0 10 2.6 2.6 0.00 0.00 0.00 1063.4
20260905171537 0 62 3.5 4.3 0.00 0.00 0.00 1063.5
20260905171033 0 87 0.9 1.7 0.00 0.00 0.00 1063.3
20260905170529 0 118 1.7 2.6 0.00 0.00 0.00 1063.6
20260905170024 0 355 2.6 5.2 0.00 0.00 0.00 1063.3